Flag for Aruba Weather past 2 weeks in Oranjestad, Aruba

Now
86 °F

Scattered clouds.


Feels Like: 97 °F
Forecast: N/A
Wind: 22 mph from East

Location: Queen Beatrix Airport - Aruba

Current Time: May 30, 2015 at 4:55:43 PM

Latest Report: May 30, 2015 at 4:00 PM


Visibility: N/A

Pressure: 29.80 "Hg

Humidity: 75%

Dew point: 77 °F

Location of OranjestadLocation

Historic Weather in Oranjestad — Graph

°F

Oranjestad temperature yesterday

Maximum temperature yesterday: 86 °F (at 11:00 AM)
Minimum temperature yesterday: 81 °F (at 3:00 AM)
Average temperature yesterday: 83 °F

Past Weeks' High & Low Weather Summary

 TemperatureHumidityPressure
High90 °F (May 20, 2:00 PM)89% (May 19, 6:00 AM)29.98 "Hg (May 19, 6:00 AM)
Low79 °F (May 16, 5:00 AM)62% (May 17, 11:00 AM)29.77 "Hg (May 20, 5:00 PM)
Average83 °F77%29.90 "Hg
* Reported May 15 3:00 PM — May 30 3:00 PM, Oranjestad, Weather by CustomWeather, © 2015

Note: Actual official high and low records may vary slightly from our data, if they occured in-between our weather recording intervals... More about our weather records

Advertising

Oranjestad weather history for previous 24 hours

 ConditionsComfort  
Time TempWeatherWind HumidityBarometerVisibility
3:00 PM
Sat, May 30
86 °FPassing clouds.23 mph75%29.83 "HgN/A
2:00 PM86 °FScattered clouds.23 mph75%29.86 "HgN/A
1:00 PM88 °FScattered clouds.23 mph70%29.86 "HgN/A
12:00 PM86 °FPassing clouds.24 mph75%29.89 "HgN/A
11:00 AM84 °FScattered clouds.21 mph79%29.89 "HgN/A
10:00 AM84 °FScattered clouds.18 mph79%29.92 "HgN/A
9:00 AM82 °FPartly sunny.18 mph84%29.92 "HgN/A
8:00 AM79 °FPartly sunny.15 mph89%29.89 "HgN/A
7:00 AM81 °FScattered showers. Scattered clouds.12 mph89%29.89 "Hg3 mi
6:00 AM81 °FPassing clouds.10 mph89%29.86 "HgN/A
5:00 AM81 °FPassing clouds.13 mph89%29.86 "HgN/A
4:00 AM81 °FPassing clouds.14 mph84%29.86 "HgN/A
3:00 AM81 °FPassing clouds.13 mph89%29.86 "HgN/A
2:00 AM81 °FPassing clouds.17 mph89%29.89 "HgN/A
1:00 AM81 °FPassing clouds.20 mph84%29.89 "HgN/A
12:00 AM81 °FPassing clouds.20 mph84%29.92 "HgN/A
11:00 PM
Fri, May 29
81 °FPassing clouds.21 mph84%29.89 "HgN/A
10:00 PM82 °FPassing clouds.17 mph79%29.89 "HgN/A
9:30 PM82 °FWarm.16 mph84%29.89 "HgN/A
9:00 PM82 °FPassing clouds.16 mph79%29.86 "HgN/A
8:00 PM82 °FPassing clouds.17 mph79%29.83 "HgN/A
7:00 PM82 °FPassing clouds.18 mph79%29.83 "HgN/A
6:00 PM82 °FPassing clouds.18 mph79%29.83 "HgN/A
5:00 PM84 °FPassing clouds.17 mph74%29.80 "HgN/A
4:00 PM84 °FPassing clouds.20 mph74%29.83 "HgN/A
Weather by CustomWeather, © 2015

See weather overviewHow to use our weather pages